User: anonymous   Login
Location: Pian di Sc�
(43.6333°N, 11.5500°E)
Time: 14:01:43
(UTC+00:00)
Language:

Cosmos 1898 Rocket - Orbit

View from above orbital plane
View from above orbital plane
View from above satellite
View from above satellite

Ground track
Ground track

The orbit data is extracted from the following two-line orbital elements,

1 18586U 87098B   20294.23120753 +.00000035 +00000-0 +20697-4 0  9996
2 18586 074.0078 206.6593 0021529 331.6516 028.3464 14.36911683722731
Epoch (UTC): 20 October 2020 05:32:56
Eccentricity: 0.0021529
inclination: 74.0078°
perigee height: 753 km
apogee height: 784 km
right ascension of ascending node: 206.6593°
argument of perigee: 331.6516°
revolutions per day: 14.36911683
mean anomaly at epoch: 28.3464°
orbit number at epoch: 72273

The dashed part of the orbit path shows where the satellite is in the earth's shadow,  

DLR